RH
16 20 25 28 32 34 37 34 36 40 58 71 63 59 62 70 77 80 78 77 75 73 63 54 46 41 35 32 31 39 43 45 45 50 52 49 59 61 66 64 64 65 63 55
19 23 26 34 35 30 33 36 33 35 42 59 53 50 57 57 66 74 78 76 76 73 69 59 49 45 38 36 34 35 42 45 43 44 51 51 57 56 63 60 58 64 63 56
20 25 31 34 37 33 32 35 33 31 31 49 61 58 59 57 61 70 77 80 79 78 71 64 56 47 42 38 40 37 39 42 44 44 45 54 53 56 61 60 53 64 63 58
26 33 35 34 34 33 33 31 34 31 29 32 53 44 58 59 61 72 80 80 81 80 77 68 62 48 42 39 41 42 41 42 44 45 44 44 51 56 59 59 54 55 59 60
31 34 36 36 34 32 31 29 33 29 28 26 45 38 49 59 63 64 74 80 82 84 80 71 66 56 45 43 42 43 44 43 42 41 44 43 46 51 56 56 53 53 54 53
28 30 32 33 34 31 29 28 28 27 27 24 27 32 48 50 59 60 63 68 76 80 84 79 71 63 56 51 45 46 45 45 43 39 39 42 42 45 47 54 54 50 55 51
28 29 29 28 28 29 29 27 29 29 27 25 23 34 58 55 56 60 59 63 66 72 78 76 72 63 61 53 47 46 45 44 44 40 37 37 39 39 40 46 51 47 48 46
28 27 28 27 27 26 29 27 27 31 27 24 26 38 58 54 53 54 55 57 57 60 67 71 67 68 60 58 53 51 44 44 45 44 39 36 34 35 34 37 41 43 40 40
30 29 28 28 29 28 29 29 27 27 28 25 27 39 47 46 48 47 48 53 56 54 60 69 69 67 67 60 55 52 49 46 45 46 46 41 37 32 31 33 35 38 41 42
31 31 29 27 29 30 30 31 30 28 31 29 40 46 52 50 49 48 47 47 55 55 53 69 73 68 66 68 65 59 55 51 48 48 46 46 41 36 30 31 31 33 38 42
31 30 31 31 31 34 32 32 33 32 31 30 34 52 57 60 54 50 51 52 53 53 52 63 77 78 72 69 66 61 59 59 54 48 48 47 45 42 36 29 30 30 31 35
29 31 34 34 34 33 32 33 36 34 38 34 34 53 63 60 58 53 51 53 54 55 55 57 66 80 81 75 73 71 69 61 56 54 53 51 49 47 44 36 26 27 29 30
30 28 33 33 33 32 33 31 33 35 35 40 33 51 63 61 59 55 53 52 52 56 57 59 62 64 79 82 82 76 69 62 62 58 57 57 52 48 47 43 38 28 25 27
31 32 29 27 32 33 32 30 31 34 37 39 40 58 63 62 61 57 55 53 54 56 57 58 60 66 73 76 87 84 79 67 63 61 60 57 57 51 49 48 46 41 35 26
32 35 35 33 30 29 29 29 28 32 35 38 51 64 67 66 64 62 60 57 57 57 57 56 59 60 70 74 73 85 89 82 71 62 59 58 59 55 50 48 48 46 43 39
34 35 33 32 29 26 25 29 30 32 42 49 57 66 68 64 61 58 57 59 57 56 58 59 58 56 54 60 69 75 87 91 85 75 67 64 61 61 52 47 46 46 44 42
29 30 28 28 29 27 23 28 32 39 42 46 54 58 62 63 63 61 56 52 54 56 57 58 60 58 60 59 56 62 73 85 94 89 87 83 77 66 56 54 51 46 44 44
26 27 31 31 28 28 26 32 34 35 40 42 47 53 56 57 59 62 62 58 53 51 52 54 55 58 59 56 60 57 60 73 88 95 92 91 85 86 81 67 54 50 47 46
29 28 35 33 29 28 32 35 36 31 38 37 39 45 47 48 51 56 55 56 53 50 49 49 49 50 52 57 57 56 56 61 75 94 98 95 91 88 87 83 74 62 52 50
40 37 35 36 35 31 30 32 35 35 33 36 37 35 33 34 36 45 49 49 51 51 46 48 46 47 46 48 53 56 57 58 61 72 84 90 91 91 91 87 87 87 84 64
51 53 48 42 37 31 31 33 36 37 35 39 37 34 31 29 29 29 29 31 35 37 40 42 43 45 46 45 44 50 55 61 60 63 71 75 81 91 93 93 89 88 92 91
43 48 53 55 50 39 35 37 39 39 38 35 33 32 31 31 31 29 28 27 26 26 27 30 32 36 39 40 41 44 49 57 58 60 62 66 66 85 93 91 90 88 91 92
46 37 43 39 37 38 40 38 39 36 35 33 32 31 31 32 31 30 29 27 26 26 26 26 24 25 31 33 35 37 40 48 56 59 60 66 70 76 82 87 87 84 82 83
43 36 38 35 33 34 37 38 37 34 33 31 31 31 30 30 29 27 29 29 28 27 26 26 26 24 22 28 32 31 37 41 44 55 57 64 68 79 76 81 81 77 93 95
50 45 41 38 36 35 34 33 32 30 31 30 30 30 31 31 26 23 23 24 25 26 28 28 28 26 25 22 24 32 33 38 39 53 54 63 66 68 75 72 82 76 79 94
57 56 53 45 39 39 37 33 31 31 30 30 31 34 34 33 31 27 27 27 27 26 25 29 32 32 29 27 23 24 32 34 37 46 51 63 62 59 66 66 74 77 76 78